,�O�C���x,�����t���O,�O�C���x,�����t���O,�󒲎����x,�����t���O,�󒲎����x,�����t���O,��󒲎����x,�����t���O,����,�����t���O
2004/12/1 0:00,9.1,0,60,0,20,0,54.7,0,15.9,0,16.7,0
2004/12/1 0:15,9,0,61,0,20,0,54.7,0,15.9,0,16.7,0
2004/12/1 0:30,8.8,0,62,0,20.1,0,57.1,0,15.9,0,16.6,0
2004/12/1 0:45,8.9,0,62,0,20.1,0,56.4,0,15.9,0,16.6,0
2004/12/1 1:00,8.6,0,63,0,20,0,56,0,15.8,0,16.6,0
2004/12/1 1:15,8.5,0,64,0,20,0,55.4,0,15.8,0,16.6,0
2004/12/1 1:30,8.1,0,66,0,20,0,54.8,0,15.8,0,16.5,0
2004/12/1 1:45,8,0,67,0,20,0,54.9,0,15.8,0,16.5,0
2004/12/1 2:00,7.7,0,70,0,19.9,0,54.9,0,15.8,0,16.6,0
2004/12/1 2:15,7.4,0,71,0,19.8,0,54.4,0,15.7,0,16.6,0
2004/12/1 2:30,7.4,0,71,0,19.6,0,54.6,0,15.7,0,16.6,0
2004/12/1 2:45,7.5,0,71,0,19.5,0,54.8,0,15.7,0,16.5,0
2004/12/1 3:00,7.4,0,72,0,19.3,0,55.1,0,15.7,0,16.7,0
2004/12/1 3:15,7.5,0,72,0,19.1,0,55.6,0,15.7,0,16.7,0
2004/12/1 3:30,7.4,0,72,0,18.9,0,56.1,0,15.7,0,16.7,0
2004/12/1 3:45,7.3,0,73,0,18.8,0,56.5,0,15.7,0,16.7,0
2004/12/1 4:00,6.8,0,77,0,18.6,0,56.4,0,15.7,0,16.7,0
2004/12/1 4:15,7,0,78,0,18.4,0,56.7,0,15.7,0,16.7,0
2004/12/1 4:30,7.3,0,79,0,18.3,0,56.9,0,15.6,0,16.7,0
2004/12/1 4:45,7.9,0,77,0,18.2,0,57,0,15.6,0,16.7,0
2004/12/1 5:00,8.8,0,73,0,18,0,56.7,0,15.6,0,16.7,0
2004/12/1 5:15,9.5,0,69,0,17.9,0,56.6,0,15.5,0,16.7,0
2004/12/1 5:30,10.8,0,65,0,17.8,0,56.5,0,15.5,0,16.6,0
2004/12/1 5:45,11.7,0,56,0,17.7,0,56.3,0,15.4,0,16.5,0
2004/12/1 6:00,12.4,0,51,0,17.5,0,56.5,0,15.4,0,16.5,0
2004/12/1 6:15,13.2,0,51,0,17.4,0,56.5,0,15.3,0,16.5,0
2004/12/1 6:30,13.4,0,50,0,17.3,0,56.5,0,15.3,0,16.5,0
2004/12/1 6:45,14,0,47,0,17.2,0,56.6,0,15.3,0,17.4,0
2004/12/1 7:00,14.8,0,42,0,17.1,0,56.7,0,15.2,0,17.2,0
2004/12/1 7:15,14.8,0,42,0,17,0,57,0,15.4,0,17.2,0
2004/12/1 7:30,14.9,0,44,0,16.8,0,55.4,0,15.6,0,16.8,0
2004/12/1 7:45,14.5,0,45,0,16.7,0,55.8,0,15.7,0,16.8,0
2004/12/1 8:00,14.8,0,43,0,16.1,0,53.2,0,15.6,0,16.8,0
2004/12/1 8:15,15.2,0,44,0,16.3,0,56.4,0,14.5,0,16.8,0
2004/12/1 8:30,15.5,0,45,0,16.4,0,60.9,0,13.6,0,16.7,0
2004/12/1 8:45,15.4,0,46,0,16.4,0,60.6,0,13,0,16.7,0
2004/12/1 9:00,15.7,0,46,0,16.5,0,60.7,0,12.6,0,16.6,0
2004/12/1 9:15,16,0,46,0,16.5,0,60.1,0,12.2,0,16.6,0
2004/12/1 9:30,16.1,0,46,0,16.6,0,62.1,0,12,0,17,0
2004/12/1 9:45,16.3,0,46,0,16.7,0,62.9,0,12.1,0,17,0
2004/12/1 10:00,16.3,0,46,0,16.8,0,62.4,0,12.4,0,16.9,0
2004/12/1 10:15,16.2,0,46,0,16.9,0,61.4,0,12.8,0,16.9,0
2004/12/1 10:30,16.3,0,47,0,16.9,0,61,0,13.2,0,16.9,0
2004/12/1 10:45,16.2,0,47,0,17,0,59.9,0,13.4,0,16.9,0
2004/12/1 11:00,16.5,0,47,0,16.9,0,56.3,0,13.7,0,16.8,0
2004/12/1 11:15,16.3,0,48,0,17,0,53.8,0,13.9,0,16.8,0
2004/12/1 11:30,15.8,0,50,0,16.9,0,51.7,0,14.1,0,16.8,0
2004/12/1 11:45,15.9,0,50,0,17.1,0,54,0,14.2,0,16.8,0
2004/12/1 12:00,15.7,0,51,0,17.1,0,52.8,0,14.3,0,16.8,0
2004/12/1 12:15,15.9,0,51,0,17.1,0,51.2,0,14.4,0,16.8,0
2004/12/1 12:30,15.8,0,50,0,17.3,0,50.5,0,14.5,0,16.8,0
2004/12/1 12:45,15.4,0,51,0,17.4,0,52.1,0,14.7,0,17.2,0
2004/12/1 13:00,15.1,0,52,0,17.5,0,52.4,0,14.8,0,17.2,0
2004/12/1 13:15,14.5,0,56,0,17.7,0,52.4,0,15,0,17.2,0
2004/12/1 13:30,14.4,0,58,0,17.8,0,52.3,0,15.2,0,17.2,0
2004/12/1 13:45,13.7,0,61,0,18,0,53.1,0,15.3,0,17.2,0
2004/12/1 14:00,13.7,0,61,0,18.1,0,54.6,0,15.4,0,17.6,0
2004/12/1 14:15,12.9,0,64,0,18.2,0,56.3,0,15.6,0,17.6,0
2004/12/1 14:30,12.4,0,67,0,18.3,0,55.8,0,15.7,0,17.6,0
2004/12/1 14:45,12.1,0,68,0,18.3,0,57,0,15.8,0,17.6,0
2004/12/1 15:00,12.4,0,68,0,18.4,0,57.6,0,15.9,0,17.6,0
2004/12/1 15:15,12.3,0,67,0,18.5,0,59.2,0,16,0,17.5,0
2004/12/1 15:30,12.1,0,68,0,18.5,0,59.3,0,16.1,0,17,0
2004/12/1 15:45,11.7,0,70,0,18.5,0,59.3,0,16.1,0,17,0
2004/12/1 16:00,11.9,0,69,0,18.4,0,59.5,0,16.1,0,17.1,0
2004/12/1 16:15,11.7,0,69,0,18.4,0,59.3,0,16.2,0,17.1,0
2004/12/1 16:30,11.3,0,72,0,18.4,0,58.7,0,16.2,0,17.1,0
2004/12/1 16:45,11.1,0,74,0,18.4,0,58.2,0,16.2,0,16.8,0
2004/12/1 17:00,10.8,0,75,0,18.4,0,59.7,0,16.2,0,16.8,0
2004/12/1 17:15,11.1,0,74,0,18.4,0,60.1,0,16.2,0,16.8,0
2004/12/1 17:30,10.8,0,75,0,18.4,0,60.3,0,16.3,0,16.9,0
2004/12/1 17:45,10.7,0,77,0,18.4,0,60,0,16.3,0,16.8,0
2004/12/1 18:00,10.4,0,77,0,18.4,0,60.5,0,16.3,0,16.9,0
2004/12/1 18:15,10.4,0,79,0,18.7,0,60.7,0,16.3,0,16.9,0
2004/12/1 18:30,10.3,0,79,0,19,0,60.5,0,16.3,0,16.9,0
2004/12/1 18:45,10.5,0,79,0,19.3,0,59.6,0,16.3,0,16.9,0
2004/12/1 19:00,10.6,0,78,0,19.7,0,60.6,0,16.3,0,16.8,0
2004/12/1 19:15,10.7,0,78,0,19.8,0,60.1,0,16.3,0,16.8,0
2004/12/1 19:30,10.3,0,80,0,19.8,0,59,0,16.3,0,16.8,0
2004/12/1 19:45,10.6,0,81,0,19.9,0,59.8,0,16.3,0,16.8,0
2004/12/1 20:00,10.4,0,81,0,20,0,59.9,0,16.3,0,16.8,0
2004/12/1 20:15,10.5,0,82,0,20,0,58.3,0,16.4,0,16.8,0
2004/12/1 20:30,10.6,0,80,0,20,0,57.5,0,16.5,0,16.8,0
2004/12/1 20:45,10.2,0,82,0,20,0,57.6,0,16.5,0,16.8,0
2004/12/1 21:00,10.3,0,83,0,20,0,57.8,0,16.5,0,16.8,0
2004/12/1 21:15,10.6,0,81,0,20,0,57.4,0,16.5,0,17.3,0
2004/12/1 21:30,10.6,0,80,0,20,0,57.3,0,16.4,0,17.3,0
2004/12/1 21:45,10.5,0,80,0,20,0,57.3,0,16.4,0,17.2,0
2004/12/1 22:00,10.4,0,81,0,20,0,57.6,0,16.4,0,17.2,0
2004/12/1 22:15,10,0,80,0,20.1,0,58.4,0,16.4,0,17.2,0
2004/12/1 22:30,10.1,0,82,0,20.2,0,58.8,0,16.4,0,17.2,0
2004/12/1 22:45,10,0,82,0,20.2,0,58.9,0,16.4,0,16.9,0
2004/12/1 23:00,9.8,0,83,0,20.3,0,58.7,0,16.4,0,17,0
2004/12/1 23:15,9.8,0,84,0,20.3,0,58.6,0,16.3,0,17,0
2004/12/1 23:30,9.8,0,84,0,20.3,0,58.2,0,16.3,0,16.9,0
2004/12/1 23:45,9.5,0,84,0,20.3,0,58.1,0,16.3,0,16.7,0
2004/12/2 0:00,9.4,0,85,0,20.3,0,58,0,16.3,0,16.7,0
2004/12/2 0:15,9.6,0,84,0,20.3,0,58.3,0,16.3,0,16.7,0
2004/12/2 0:30,9.5,0,84,0,20.3,0,58.1,0,16.3,0,16.7,0
2004/12/2 0:45,9.3,0,85,0,20.3,0,57.9,0,16.3,0,16.7,0
2004/12/2 1:00,8.8,0,86,0,20.1,0,57.4,0,16.3,0,16.7,0
2004/12/2 1:15,9.1,0,86,0,19.9,0,58,0,16.3,0,16.9,0
2004/12/2 1:30,9.2,0,87,0,19.8,0,58.4,0,16.3,0,16.9,0
2004/12/2 1:45,9.3,0,86,0,19.6,0,59,0,16.3,0,16.9,0
2004/12/2 2:00,9,0,86,0,19.5,0,59.5,0,16.3,0,16.9,0
2004/12/2 2:15,9,0,87,0,19.3,0,59.7,0,16.2,0,16.9,0
2004/12/2 2:30,9,0,86,0,19.2,0,60.3,0,16.2,0,16.8,0
2004/12/2 2:45,8.8,0,86,0,19,0,59.3,0,16.2,0,16.8,0
2004/12/2 3:00,8.7,0,86,0,18.9,0,59.7,0,16.2,0,16.8,0
2004/12/2 3:15,8.6,0,87,0,18.7,0,59.4,0,16.3,0,16.8,0
2004/12/2 3:30,8.8,0,88,0,18.6,0,59.5,0,16.4,0,16.7,0
2004/12/2 3:45,8.9,0,87,0,18.6,0,60.7,0,16.3,0,16.7,0
2004/12/2 4:00,9,0,86,0,18.5,0,61.4,0,16.2,0,16.7,0
2004/12/2 4:15,9.3,0,85,0,18.4,0,61.6,0,16.2,0,16.7,0
2004/12/2 4:30,9.3,0,85,0,18.3,0,61.5,0,16.1,0,16.7,0
2004/12/2 4:45,9.8,0,84,0,18.3,0,62.1,0,16,0,16.8,0
2004/12/2 5:00,10.2,0,84,0,18.2,0,62.6,0,16,0,17.2,0
2004/12/2 5:15,11.1,0,80,0,18.1,0,62.7,0,16,0,17.2,0
2004/12/2 5:30,12,0,77,0,18,0,62.8,0,15.9,0,17.1,0
2004/12/2 5:45,12.4,0,70,0,18,0,62.8,0,16,0,17.1,0
2004/12/2 6:00,12.9,0,68,0,17.9,0,62.7,0,16.1,0,17.1,0
2004/12/2 6:15,13.4,0,65,0,17.8,0,62.5,0,16.2,0,16.7,0
2004/12/2 6:30,13.8,0,63,0,17.7,0,62.6,0,16.1,0,16.7,0
2004/12/2 6:45,14.8,0,59,0,17.7,0,62.5,0,16.1,0,16.7,0
2004/12/2 7:00,15.1,0,50,0,17.6,0,62.5,0,16,0,16.7,0
2004/12/2 7:15,14.9,0,51,0,17.5,0,62.5,0,16,0,16.7,0
2004/12/2 7:30,15.7,0,49,0,17.4,0,62.9,0,16.2,0,16.6,0
2004/12/2 7:45,15.5,0,49,0,17.3,0,62.6,0,16.2,0,16.6,0
2004/12/2 8:00,16.1,0,46,0,17.2,0,63,0,16.2,0,16.6,0
2004/12/2 8:15,16.4,0,45,0,17.5,0,65.4,0,16.1,0,16.6,0
2004/12/2 8:30,16.5,0,44,0,18,0,67,0,16,0,16.5,0
2004/12/2 8:45,16.6,0,45,0,18.3,0,65.7,0,15.9,0,17.2,0
2004/12/2 9:00,17.2,0,42,0,18.5,0,64,0,15.8,0,17.2,0
2004/12/2 9:15,17.3,0,40,0,18.7,0,63.3,0,15.7,0,17.2,0
2004/12/2 9:30,17.5,0,39,0,18.7,0,62.3,0,15.7,0,16.9,0
2004/12/2 9:45,17,0,40,0,18.8,0,62,0,15.7,0,16.9,0
2004/12/2 10:00,17.4,0,35,0,18.7,0,61.6,0,16,0,16.8,0
2004/12/2 10:15,17.4,0,35,0,18.9,0,63.5,0,16.4,0,16.8,0
2004/12/2 10:30,17.4,0,33,0,19,0,63,0,16.5,0,16.8,0
2004/12/2 10:45,17.4,0,32,0,19.1,0,62.4,0,16.6,0,16.8,0
2004/12/2 11:00,17.5,0,33,0,19.3,0,62.4,0,16.7,0,16.8,0
2004/12/2 11:15,17.3,0,34,0,19.3,0,59.8,0,16.8,0,16.8,0
2004/12/2 11:30,17.3,0,33,0,19.4,0,59.1,0,16.9,0,16.8,0
2004/12/2 11:45,17.6,0,34,0,19.5,0,57.1,0,17,0,16.8,0
2004/12/2 12:00,17.4,0,33,0,19.6,0,58.4,0,17.1,0,17.1,0
2004/12/2 12:15,17.1,0,34,0,19.8,0,59.6,0,17.2,0,17.2,0
2004/12/2 12:30,16.8,0,35,0,19.9,0,59.9,0,17.3,0,17.2,0
2004/12/2 12:45,16.7,0,37,0,20,0,59.7,0,17.4,0,17.2,0
2004/12/2 13:00,16.3,0,40,0,20.1,0,57.2,0,17.5,0,17.2,0
2004/12/2 13:15,15.9,0,41,0,20.5,0,58.2,0,17.6,0,17.2,0
2004/12/2 13:30,15.7,0,43,0,20.7,0,59.2,0,17.8,0,17.2,0
2004/12/2 13:45,15.1,0,44,0,20.8,0,59.1,0,17.8,0,17.2,0
2004/12/2 14:00,14.7,0,45,0,20.9,0,59,0,17.9,0,17.5,0
2004/12/2 14:15,14.2,0,49,0,21,0,58.9,0,18,0,17.5,0
2004/12/2 14:30,13.9,0,51,0,21.1,0,58.7,0,18,0,17.5,0
2004/12/2 14:45,13.5,0,53,0,21.3,0,58,0,18.1,0,17.5,0
2004/12/2 15:00,12.8,0,55,0,21.3,0,57.6,0,18.2,0,17.5,0
2004/12/2 15:15,13,0,56,0,21.3,0,54.8,0,18.2,0,17.5,0
2004/12/2 15:30,12.9,0,57,0,21.3,0,53.7,0,18.2,0,17.5,0
2004/12/2 15:45,12.8,0,55,0,21.3,0,54.8,0,18.2,0,17.5,0
2004/12/2 16:00,12.7,0,55,0,21.4,0,55.3,0,18.2,0,17.5,0
2004/12/2 16:15,12,0,58,0,21.4,0,55.6,0,18.1,0,17.5,0
2004/12/2 16:30,12.1,0,59,0,21.4,0,54.4,0,18.1,0,17.5,0
2004/12/2 16:45,11.7,0,61,0,21.4,0,54.7,0,18.1,0,17.5,0
2004/12/2 17:00,11.3,0,62,0,21.4,0,54.4,0,18.1,0,17.5,0
2004/12/2 17:15,11.2,0,64,0,21.4,0,55,0,18.1,0,17.6,0
2004/12/2 17:30,11.3,0,63,0,21.4,0,54.6,0,18,0,17.6,0
2004/12/2 17:45,11.5,0,62,0,21.5,0,54.7,0,18,0,17.5,0
2004/12/2 18:00,11.1,0,63,0,21.7,0,53.8,0,18,0,17.5,0
2004/12/2 18:15,11,0,63,0,21.8,0,53.7,0,18,0,17.5,0
2004/12/2 18:30,10.9,0,64,0,22,0,53.5,0,17.9,0,17.5,0
2004/12/2 18:45,11.2,0,63,0,22,0,51.3,0,17.9,0,17.5,0
2004/12/2 19:00,11,0,64,0,22.1,0,53.6,0,17.8,0,17.5,0
2004/12/2 19:15,10.9,0,66,0,22.1,0,53,0,17.8,0,17.1,0
2004/12/2 19:30,11.3,0,65,0,22.1,0,52.7,0,17.7,0,17.1,0
2004/12/2 19:45,11.5,0,64,0,22.2,0,52.9,0,17.7,0,17.1,0
2004/12/2 20:00,11.6,0,64,0,22.2,0,53.6,0,17.6,0,17.2,0
2004/12/2 20:15,11.5,0,64,0,22.2,0,55,0,17.6,0,16.9,0
2004/12/2 20:30,11.5,0,64,0,22.2,0,57.3,0,17.5,0,16.9,0
2004/12/2 20:45,11.5,0,64,0,22.2,0,57.4,0,17.5,0,17,0
2004/12/2 21:00,11.4,0,65,0,22.1,0,56.8,0,17.4,0,17,0
2004/12/2 21:15,11.4,0,65,0,21.9,0,55.8,0,17.4,0,17,0
2004/12/2 21:30,11.3,0,65,0,21.8,0,55.9,0,17.3,0,17,0
2004/12/2 21:45,11.4,0,65,0,21.6,0,55.7,0,17.3,0,17,0
2004/12/2 22:00,11.5,0,65,0,21.5,0,54.8,0,17.3,0,17,0
2004/12/2 22:15,11.6,0,64,0,21.4,0,54.9,0,17.3,0,17,0
2004/12/2 22:30,11.7,0,64,0,21.3,0,54.9,0,17.3,0,17,0
2004/12/2 22:45,11.8,0,63,0,21.1,0,54.8,0,17.3,0,16.8,0
2004/12/2 23:00,11.9,0,62,0,21,0,54.9,0,17.2,0,16.8,0
2004/12/2 23:15,11.9,0,63,0,20.9,0,54.9,0,17.2,0,16.8,0
2004/12/2 23:30,11.7,0,64,0,21,0,54.6,0,17.1,0,16.8,0
2004/12/2 23:45,11.4,0,65,0,20.9,0,54.8,0,17,0,16.8,0
2004/12/3 0:00,11.5,0,65,0,20.8,0,54.6,0,17,0,16.8,0
2004/12/3 0:15,11.7,0,63,0,20.8,0,54.8,0,16.9,0,16.9,0
2004/12/3 0:30,11.9,0,62,0,20.7,0,54.9,0,16.8,0,16.9,0
2004/12/3 0:45,11.9,0,63,0,20.6,0,54.8,0,16.8,0,16.9,0
2004/12/3 1:00,11.7,0,65,0,20.5,0,54.5,0,16.7,0,16.9,0
2004/12/3 1:15,11.5,0,66,0,20.3,0,55.1,0,16.7,0,17,0
2004/12/3 1:30,11.1,0,67,0,20.4,0,54.7,0,16.6,0,17,0
2004/12/3 1:45,10.9,0,69,0,20.3,0,55,0,16.5,0,17,0
2004/12/3 2:00,11.1,0,68,0,20.1,0,55.5,0,16.4,0,17.1,0
2004/12/3 2:15,11.1,0,68,0,19.9,0,55.6,0,16.4,0,16.8,0
2004/12/3 2:30,10.9,0,68,0,19.8,0,56.1,0,16.3,0,16.9,0
2004/12/3 2:45,11,0,68,0,19.6,0,56.1,0,16.2,0,16.9,0
2004/12/3 3:00,10.9,0,67,0,19.4,0,56.2,0,16.2,0,16.9,0
2004/12/3 3:15,11,0,67,0,19.3,0,56.4,0,16.2,0,16.9,0
2004/12/3 3:30,10.9,0,67,0,19.1,0,56.6,0,16.1,0,16.9,0
2004/12/3 3:45,10.8,0,68,0,19.1,0,56.7,0,16.1,0,16.9,0
2004/12/3 4:00,10.9,0,67,0,19,0,56.7,0,16,0,16.9,0
2004/12/3 4:15,10.7,0,68,0,18.9,0,56.7,0,15.9,0,16.8,0
2004/12/3 4:30,10.9,0,67,0,18.7,0,56.9,0,15.9,0,17.1,0
2004/12/3 4:45,11.1,0,66,0,18.6,0,57.1,0,15.8,0,17.1,0
2004/12/3 5:00,11.6,0,65,0,18.5,0,57.2,0,15.8,0,17.1,0
2004/12/3 5:15,12.5,0,60,0,18.4,0,57.3,0,16,0,17.1,0
2004/12/3 5:30,13.1,0,56,0,18.3,0,57.3,0,16,0,17.1,0
2004/12/3 5:45,13.8,0,54,0,18.2,0,57.4,0,16,0,17.1,0
2004/12/3 6:00,14.2,0,53,0,18.1,0,57.4,0,15.9,0,17.1,0
2004/12/3 6:15,14.9,0,51,0,18,0,57.5,0,15.8,0,16.8,0
2004/12/3 6:30,15.3,0,50,0,18,0,57.5,0,15.7,0,16.8,0
2004/12/3 6:45,15.9,0,49,0,17.9,0,57.4,0,15.6,0,16.8,0
2004/12/3 7:00,16.9,0,47,0,17.8,0,57.6,0,15.7,0,16.8,0
2004/12/3 7:15,17,0,47,0,17.7,0,57.6,0,15.8,0,16.7,0
2004/12/3 7:30,17.2,0,44,0,17.6,0,57.6,0,15.8,0,16.7,0
2004/12/3 7:45,17.6,0,41,0,17.5,0,57.2,0,15.9,0,16.8,0
2004/12/3 8:00,18,0,40,0,17.6,0,59.7,0,16,0,16.8,0
2004/12/3 8:15,18.5,0,39,0,17.6,0,60.4,0,16,0,17,0
2004/12/3 8:30,18.7,0,40,0,17.8,0,62.9,0,14.8,0,17,0
2004/12/3 8:45,19.1,0,39,0,17.6,0,60,0,14.2,0,17.1,0
2004/12/3 9:00,19.5,0,39,0,17.7,0,61.1,0,13.8,0,17.1,0
2004/12/3 9:15,19.7,0,39,0,17.7,0,60.1,0,13.4,0,17.1,0
2004/12/3 9:30,20.2,0,38,0,17.7,0,59.3,0,13.2,0,17.1,0
2004/12/3 9:45,20.4,0,38,0,17.8,0,59.3,0,13.3,0,17.1,0
2004/12/3 10:00,20.4,0,38,0,17.9,0,58.9,0,13.5,0,17.1,0
2004/12/3 10:15,20.6,0,36,0,18,0,59.5,0,13.9,0,17.1,0
2004/12/3 10:30,20.8,0,37,0,18.2,0,59.7,0,14.3,0,17.1,0
2004/12/3 10:45,20.6,0,36,0,18.4,0,58.7,0,14.6,0,16.9,0
2004/12/3 11:00,20.7,0,37,0,18.5,0,56.9,0,14.9,0,16.9,0
2004/12/3 11:15,20.7,0,37,0,18.8,0,56.4,0,15.3,0,16.9,0
2004/12/3 11:30,20.7,0,36,0,19,0,56,0,15.6,0,16.9,0
2004/12/3 11:45,20.6,0,36,0,19.2,0,55.8,0,15.8,0,16.9,0
2004/12/3 12:00,20.5,0,36,0,19.4,0,54.8,0,16,0,16.9,0
2004/12/3 12:15,20.3,0,36,0,19.3,0,47,0,16.1,0,16.9,0
2004/12/3 12:30,20.1,0,37,0,19.4,0,49.1,0,16.2,0,16.9,0
2004/12/3 12:45,19.5,0,40,0,19.6,0,51.7,0,16.4,0,17,0
2004/12/3 13:00,19.1,0,42,0,19.9,0,54.6,0,16.6,0,17,0
2004/12/3 13:15,18.7,0,44,0,20.2,0,56.3,0,16.9,0,17,0
2004/12/3 13:30,18,0,48,0,20.4,0,55.6,0,17.1,0,17,0
2004/12/3 13:45,17.4,0,49,0,20.5,0,53.2,0,17.2,0,17,0
2004/12/3 14:00,17,0,50,0,20.6,0,56.3,0,17.5,0,17.2,0
2004/12/3 14:15,16.5,0,52,0,20.7,0,56.5,0,17.7,0,17.2,0
2004/12/3 14:30,16.3,0,53,0,20.7,0,56.5,0,17.9,0,17.2,0
2004/12/3 14:45,15.9,0,56,0,20.7,0,56.6,0,18.1,0,17.2,0
2004/12/3 15:00,15.8,0,57,0,20.7,0,55.5,0,18.2,0,17.2,0
2004/12/3 15:15,15.7,0,59,0,20.7,0,56.3,0,18.2,0,17.2,0
2004/12/3 15:30,15.5,0,60,0,20.7,0,56.1,0,18.2,0,17.3,0
2004/12/3 15:45,15.3,0,61,0,20.7,0,55.7,0,18.2,0,17.3,0
2004/12/3 16:00,15.1,0,63,0,20.7,0,55.5,0,18.2,0,17.3,0
2004/12/3 16:15,14.9,0,64,0,20.7,0,55.2,0,18.2,0,17.3,0
2004/12/3 16:30,14.7,0,65,0,20.6,0,54.5,0,18.2,0,17.4,0
2004/12/3 16:45,14.8,0,66,0,20.6,0,53.9,0,18.2,0,17.4,0
2004/12/3 17:00,14.6,0,66,0,20.5,0,54.9,0,18.2,0,17.4,0
2004/12/3 17:15,14.6,0,67,0,20.5,0,55.6,0,18.2,0,17.1,0
2004/12/3 17:30,14.8,0,66,0,20.5,0,56.4,0,18.2,0,17.2,0
2004/12/3 17:45,14.5,0,67,0,20.4,0,57,0,18.2,0,17.2,0
2004/12/3 18:00,14.6,0,68,0,20.4,0,56.9,0,18.2,0,17.2,0
2004/12/3 18:15,14.6,0,67,0,20.4,0,56.8,0,18.2,0,17.2,0
2004/12/3 18:30,14.6,0,67,0,20.4,0,57.5,0,18.2,0,17.3,0
2004/12/3 18:45,14.8,0,65,0,20.7,0,58,0,18.2,0,17.3,0
2004/12/3 19:00,14.9,0,64,0,21.1,0,57.1,0,18.2,0,17.3,0
2004/12/3 19:15,15.1,0,63,0,21.3,0,56.5,0,18.2,0,17.3,0
2004/12/3 19:30,15.1,0,63,0,21.6,0,56.1,0,18.2,0,17.4,0
2004/12/3 19:45,14.9,0,64,0,21.7,0,56,0,18.2,0,17.2,0
2004/12/3 20:00,15.2,0,63,0,21.8,0,56.5,0,18.2,0,17.3,0
2004/12/3 20:15,14.9,0,63,0,21.8,0,55.9,0,18.2,0,17.3,0
2004/12/3 20:30,14.8,0,64,0,21.8,0,56.5,0,18.2,0,17.3,0
2004/12/3 20:45,14.6,0,65,0,21.9,0,55.9,0,18.2,0,17.3,0
2004/12/3 21:00,14.3,0,67,0,21.9,0,57.3,0,18.2,0,17.3,0
2004/12/3 21:15,14.1,0,68,0,21.9,0,56.6,0,18.1,0,17.4,0
2004/12/3 21:30,14.2,0,68,0,22,0,56.2,0,18.2,0,17.4,0
2004/12/3 21:45,14.6,0,67,0,22,0,57.1,0,18.2,0,17.2,0
2004/12/3 22:00,14.5,0,66,0,22.1,0,57.3,0,18.2,0,17.2,0
2004/12/3 22:15,14.5,0,67,0,22.2,0,57.9,0,18.2,0,17.2,0
2004/12/3 22:30,14.7,0,68,0,22.2,0,57.7,0,18.2,0,17.3,0
2004/12/3 22:45,14.8,0,69,0,22.2,0,57.1,0,18.2,0,17.3,0
2004/12/3 23:00,14.6,0,69,0,22.2,0,56.8,0,18.2,0,17.3,0
2004/12/3 23:15,14.5,0,68,0,22.2,0,57,0,18.2,0,17.3,0
2004/12/3 23:30,14.5,0,68,0,22.1,0,56.9,0,18.2,0,17.3,0
2004/12/3 23:45,14.6,0,69,0,21.9,0,56.9,0,18.2,0,17.2,0
2004/12/4 0:00,14.8,0,69,0,21.8,0,57.5,0,18.1,0,17.3,0
2004/12/4 0:15,15.1,0,68,0,21.7,0,57.3,0,18.1,0,17.3,0
2004/12/4 0:30,15.4,0,65,0,21.6,0,57.6,0,18.1,0,17.3,0
2004/12/4 0:45,15.6,0,63,0,21.5,0,57.7,0,18.2,0,17.3,0
2004/12/4 1:00,15.8,0,63,0,21.3,0,57.6,0,18.2,0,17.3,0
2004/12/4 1:15,15.6,0,65,0,21.2,0,57.8,0,18.2,0,17.1,0
2004/12/4 1:30,15.4,0,66,0,21,0,57.5,0,18.2,0,17.1,0
2004/12/4 1:45,15.2,0,68,0,20.7,0,56.7,0,18.2,0,17.2,0
2004/12/4 2:00,15.4,0,67,0,20.6,0,56.8,0,18.2,0,17.2,0
2004/12/4 2:15,15.1,0,68,0,20.5,0,57,0,18.2,0,17.2,0
2004/12/4 2:30,14.8,0,69,0,20.3,0,57.1,0,18.2,0,17.2,0
2004/12/4 2:45,15.1,0,70,0,20.2,0,57.1,0,18.2,0,17.2,0
2004/12/4 3:00,15.7,0,68,0,20.1,0,57.5,0,18.2,0,17.1,0
2004/12/4 3:15,16.1,0,65,0,20,0,57.8,0,18.2,0,17.1,0
2004/12/4 3:30,16.3,0,64,0,19.9,0,57.7,0,18.2,0,17.1,0
2004/12/4 3:45,16.5,0,64,0,19.8,0,57.6,0,18.2,0,17.1,0
2004/12/4 4:00,16.7,0,64,0,19.7,0,57.8,0,18.2,0,17.1,0
2004/12/4 4:15,16.7,0,63,0,19.6,0,57.9,0,18.2,0,17.2,0
2004/12/4 4:30,16.9,0,63,0,19.6,0,58.4,0,18.2,0,17,0
2004/12/4 4:45,17.1,0,63,0,19.6,0,58.3,0,18.2,0,17.2,0
2004/12/4 5:00,17.2,0,63,0,19.6,0,58.5,0,18.2,0,17.2,0
2004/12/4 5:15,17.2,0,65,0,19.5,0,58.7,0,18.2,0,17.3,0
2004/12/4 5:30,17.2,0,66,0,19.5,0,58.9,0,18.3,0,17.3,0
2004/12/4 5:45,17,0,69,0,19.4,0,59.2,0,18.5,0,17.3,0
2004/12/4 6:00,16.8,0,72,0,19.4,0,59.5,0,18.6,0,17.3,0
2004/12/4 6:15,16.7,0,74,0,19.3,0,59.8,0,18.6,0,17.3,0
2004/12/4 6:30,16,0,75,0,19.3,0,60,0,18.6,0,17.4,0
2004/12/4 6:45,15.2,0,79,0,19.3,0,60.1,0,18.5,0,17.1,0
2004/12/4 7:00,15,0,82,0,19.2,0,60.3,0,18.5,0,17.4,0
2004/12/4 7:15,14.8,0,84,0,19.2,0,60.2,0,18.5,0,17.2,0
2004/12/4 7:30,14.7,0,86,0,19.2,0,60.2,0,18.5,0,17.3,0
2004/12/4 7:45,14.6,0,89,0,19.2,0,60.8,0,18.5,0,17.3,0
2004/12/4 8:00,14.6,0,90,0,19.3,0,60.9,0,18.5,0,17.5,0
2004/12/4 8:15,14.6,0,91,0,19.6,0,62,0,18.5,0,17.5,0
2004/12/4 8:30,14.5,0,93,0,20,0,61.5,0,18.5,0,17.6,0
2004/12/4 8:45,14.6,0,94,0,20.4,0,61.1,0,18.5,0,17.6,0
2004/12/4 9:00,15,0,95,0,20.8,0,60.5,0,18.4,0,17.6,0
2004/12/4 9:15,15,0,96,0,20.9,0,60.2,0,18.4,0,17.6,0
2004/12/4 9:30,15.2,0,96,0,21.1,0,59.9,0,18.4,0,17.6,0
2004/12/4 9:45,15.4,0,96,0,21.1,0,59.8,0,18.3,0,17.7,0
2004/12/4 10:00,15.4,0,96,0,21.2,0,60.4,0,18.3,0,17.7,0
2004/12/4 10:15,15.4,0,96,0,21.2,0,60.4,0,18.3,0,17.7,0
2004/12/4 10:30,15.5,0,97,0,21.4,0,60.8,0,18.3,0,17.7,0
2004/12/4 10:45,15.5,0,97,0,21.4,0,60.8,0,18.3,0,17.8,0
2004/12/4 11:00,15.4,0,99,0,21.4,0,60.9,0,18.3,0,17.8,0
2004/12/4 11:15,15.2,0,99,0,21.5,0,60.8,0,18.3,0,17.4,0
2004/12/4 11:30,15.2,0,99,0,21.4,0,60.3,0,18.3,0,17.5,0
2004/12/4 11:45,15.4,0,99,0,21.3,0,60.8,0,18.3,0,17.2,0
2004/12/4 12:00,15.3,0,99,0,21.3,0,61.3,0,18.3,0,17.2,0
2004/12/4 12:15,15.2,0,99,0,21.2,0,61.7,0,18.2,0,17.3,0
2004/12/4 12:30,15.2,0,99,0,21.1,0,61.9,0,18.2,0,17.3,0
2004/12/4 12:45,15.2,0,99,0,21,0,61.8,0,18.2,0,17.3,0
2004/12/4 13:00,15.2,0,99,0,20.9,0,62.8,0,18.2,0,17.4,0
2004/12/4 13:15,15.1,0,99,0,20.8,0,63.2,0,18.1,0,17.2,0
2004/12/4 13:30,15.1,0,99,0,20.8,0,64.2,0,18.1,0,17.2,0
2004/12/4 13:45,15.1,0,99,0,20.9,0,66.3,0,18.1,0,17.3,0
2004/12/4 14:00,15.1,0,99,0,20.9,0,66,0,18.1,0,17.3,0
2004/12/4 14:15,15.1,0,99,0,20.8,0,64.2,0,18.1,0,17.4,0
2004/12/4 14:30,15.2,0,99,0,20.7,0,64.2,0,18.1,0,17.4,0
2004/12/4 14:45,15.2,0,99,0,20.6,0,64.3,0,18.1,0,17.4,0
2004/12/4 15:00,15,0,99,0,20.5,0,64.7,0,18.1,0,17.4,0
2004/12/4 15:15,14.9,0,99,0,20.5,0,64.7,0,18.1,0,17.2,0
2004/12/4 15:30,15.1,0,99,0,20.4,0,64.6,0,18.1,0,17.2,0
2004/12/4 15:45,15.1,0,99,0,20.3,0,64.7,0,18.1,0,17.2,0
2004/12/4 16:00,15.1,0,99,0,20.3,0,64.9,0,18.1,0,17.2,0
2004/12/4 16:15,15.1,0,99,0,20.2,0,65.8,0,18.1,0,17.3,0
2004/12/4 16:30,15.1,0,99,0,20.1,0,65.3,0,18.1,0,17.3,0
2004/12/4 16:45,15.1,0,99,0,20.1,0,66,0,18.1,0,17.3,0
2004/12/4 17:00,15.2,0,99,0,20,0,65.9,0,18.1,0,17.3,0
2004/12/4 17:15,15.2,0,99,0,20,0,65.4,0,18.1,0,17.4,0
2004/12/4 17:30,15.3,0,99,0,19.9,0,65.3,0,18.1,0,17.4,0
2004/12/4 17:45,15.4,0,99,0,19.9,0,65.7,0,18.1,0,17.2,0
2004/12/4 18:00,15.4,0,99,0,19.9,0,65.4,0,18.1,0,17.2,0
2004/12/4 18:15,15.4,0,99,0,19.9,0,65.2,0,18.1,0,17.2,0
2004/12/4 18:30,15.5,0,99,0,19.9,0,65.1,0,18.1,0,17.2,0
2004/12/4 18:45,15.7,0,99,0,19.9,0,66,0,18.1,0,17.2,0
2004/12/4 19:00,15.8,0,99,0,19.9,0,65.5,0,18.1,0,17.3,0
2004/12/4 19:15,15.9,0,99,0,19.9,0,65.9,0,18.1,0,17.3,0
2004/12/4 19:30,15.9,0,99,0,19.9,0,67.8,0,18.1,0,17.3,0
2004/12/4 19:45,16.2,0,99,0,20,0,67.9,0,18.1,0,17.3,0
2004/12/4 20:00,16.2,0,99,0,20,0,68.4,0,18.1,0,17.3,0
2004/12/4 20:15,16.1,0,99,0,20.1,0,68.5,0,18.1,0,17.4,0
2004/12/4 20:30,15.2,0,99,0,20.2,0,69.2,0,18.1,0,17.4,0
2004/12/4 20:45,15.2,0,99,0,20.5,0,68.4,0,18.2,0,17.1,0
2004/12/4 21:00,15.4,0,99,0,20.9,0,68.1,0,18.2,0,17.2,0
2004/12/4 21:15,15.2,0,99,0,21.3,0,66.3,0,18.2,0,17.2,0
2004/12/4 21:30,15.1,0,99,0,21.7,0,65.2,0,18.2,0,17.1,0
2004/12/4 21:45,15.1,0,99,0,21.7,0,64.8,0,18.2,0,16.7,0
2004/12/4 22:00,15.2,0,99,0,21.6,0,65,0,18.2,0,16.7,0
2004/12/4 22:15,15.1,0,99,0,21.5,0,64.9,0,18.2,0,16.7,0
2004/12/4 22:30,15.1,0,99,0,21.4,0,64.7,0,18.3,0,16.8,0
2004/12/4 22:45,15,0,99,0,21.3,0,64.9,0,18.3,0,16.8,0
2004/12/4 23:00,15,0,99,0,21.3,0,65,0,18.3,0,16.8,0
2004/12/4 23:15,14.7,0,99,0,21.2,0,65.3,0,18.3,0,16.8,0
2004/12/4 23:30,14.2,0,99,0,21.2,0,64.8,0,18.3,0,16.9,0
2004/12/4 23:45,13.5,0,97,0,21.1,0,65,0,18.3,0,17,0
2004/12/5 0:00,13.2,0,97,0,21.1,0,65,0,18.4,0,17,0
2004/12/5 0:15,13.4,0,99,0,21,0,65.4,0,18.4,0,17,0
2004/12/5 0:30,13.2,0,99,0,21,0,65.8,0,18.4,0,17.1,0
2004/12/5 0:45,13.1,0,99,0,21.1,0,67.1,0,18.4,0,17.1,0
2004/12/5 1:00,12.9,0,92,0,21.2,0,66.8,0,18.5,0,17.1,0
2004/12/5 1:15,13,0,82,0,21.4,0,66.1,0,18.5,0,17.1,0
2004/12/5 1:30,13,0,74,0,21.8,0,65.2,0,18.5,0,17.2,0
2004/12/5 1:45,12.7,0,73,0,21.8,0,65.3,0,18.5,0,17.2,0
2004/12/5 2:00,12.6,0,69,0,21.6,0,65.7,0,18.5,0,17.2,0
2004/12/5 2:15,12.3,0,67,0,21.5,0,65.8,0,18.6,0,17.2,0
2004/12/5 2:30,12.3,0,65,0,21.4,0,66.3,0,18.6,0,17.2,0
2004/12/5 2:45,12.2,0,66,0,21.3,0,66.7,0,18.6,0,17.2,0
2004/12/5 3:00,12.1,0,65,0,21.2,0,66.6,0,18.6,0,17.3,0
2004/12/5 3:15,12.1,0,66,0,21.1,0,66.5,0,18.6,0,17.3,0
2004/12/5 3:30,12.1,0,66,0,21,0,67.4,0,18.6,0,17.3,0
2004/12/5 3:45,12.1,0,65,0,20.9,0,67.4,0,18.7,0,17.4,0
2004/12/5 4:00,11.9,0,65,0,20.8,0,67.6,0,18.7,0,17.4,0
2004/12/5 4:15,12,0,65,0,20.7,0,67.6,0,18.7,0,17.4,0
2004/12/5 4:30,11.9,0,64,0,20.6,0,67.6,0,18.7,0,17.3,0
2004/12/5 4:45,11.7,0,63,0,20.5,0,67.5,0,18.7,0,17.2,0
2004/12/5 5:00,11.9,0,63,0,20.4,0,67.7,0,18.7,0,17.1,0
2004/12/5 5:15,11.7,0,62,0,20.3,0,67.2,0,18.7,0,17.1,0
2004/12/5 5:30,11.9,0,61,0,20.3,0,67.4,0,18.8,0,17.2,0
2004/12/5 5:45,11.8,0,56,0,20.2,0,67.1,0,18.9,0,17.3,0
2004/12/5 6:00,12.1,0,54,0,20.1,0,67.2,0,19,0,17.1,0
2004/12/5 6:15,12.1,0,56,0,20,0,67,0,19.1,0,17.1,0
2004/12/5 6:30,12.3,0,54,0,19.9,0,67,0,19.1,0,17.1,0
2004/12/5 6:45,12.5,0,54,0,19.9,0,67,0,19.2,0,17.1,0
2004/12/5 7:00,12.5,0,52,0,19.8,0,66.7,0,19.2,0,17.1,0
2004/12/5 7:15,12.7,0,47,0,19.7,0,67,0,19.2,0,16.9,0
2004/12/5 7:30,13.2,0,47,0,19.3,0,60.6,0,19.1,0,17,0
2004/12/5 7:45,13,0,48,0,18.5,0,56.7,0,19.1,0,17,0
2004/12/5 8:00,12.6,0,48,0,18.8,0,58.6,0,19,0,17,0
2004/12/5 8:15,12.7,0,47,0,19,0,62.2,0,19,0,17,0
2004/12/5 8:30,13.1,0,49,0,19.3,0,67.1,0,18.9,0,17.2,0
2004/12/5 8:45,12.9,0,48,0,19.6,0,66.2,0,18.8,0,17.2,0
2004/12/5 9:00,13.1,0,50,0,19.9,0,65.6,0,18.7,0,17.2,0
2004/12/5 9:15,12.7,0,49,0,20.2,0,64.5,0,18.6,0,17.2,0
2004/12/5 9:30,12.5,0,49,0,20.4,0,63,0,18.5,0,16.9,0
2004/12/5 9:45,12.6,0,50,0,20.4,0,64.2,0,18.4,0,17,0
2004/12/5 10:00,12.9,0,48,0,20.4,0,64.3,0,18.4,0,17,0
2004/12/5 10:15,12.6,0,50,0,20.5,0,62.5,0,18.3,0,17,0
2004/12/5 10:30,12.8,0,50,0,20.5,0,60.9,0,18.3,0,16.9,0
2004/12/5 10:45,12.9,0,50,0,20.7,0,62.7,0,18.2,0,16.9,0
2004/12/5 11:00,12.7,0,49,0,20.6,0,60.9,0,18.2,0,16.9,0
2004/12/5 11:15,13.1,0,50,0,20.7,0,60.3,0,18.2,0,16.9,0